EN

Hourly Weather Ambatondrazaka

Today, 20 January, Wednesday

Time Temperature Precipitation Wind Pressure Humidity
00:00 +22°C° 0.1 mm 3 mps 682 mmHg 89%
01:00 +22°C° 0.3 mm 3 mps 682 mmHg 89%
02:00 +22°C° 0.3 mm 3 mps 682 mmHg 90%
03:00 +22°C° 0 mm 3 mps 681 mmHg 92%
04:00 +22°C° 0.4 mm 3 mps 681 mmHg 93%
05:00 +22°C° 0.4 mm 4 mps 681 mmHg 93%
06:00 +22°C° 0.4 mm 4 mps 681 mmHg 94%
07:00 +22°C° 0.2 mm 4 mps 682 mmHg 91%
08:00 +23°C° 0.2 mm 4 mps 682 mmHg 88%
09:00 +23°C° 0.2 mm 4 mps 682 mmHg 85%
10:00 +23°C° 0.4 mm 4 mps 682 mmHg 86%
11:00 +23°C° 0.4 mm 5 mps 682 mmHg 86%
12:00 +23°C° 0.4 mm 5 mps 681 mmHg 86%
13:00 +23°C° 0.6 mm 5 mps 681 mmHg 86%
14:00 +25°C° 0.6 mm 5 mps 682 mmHg 86%
15:00 +25°C° 0.6 mm 5 mps 682 mmHg 85%
16:00 +23°C° 1.3 mm 5 mps 682 mmHg 87%
17:00 +23°C° 1.3 mm 4 mps 682 mmHg 89%
18:00 +22°C° 1.3 mm 3 mps 682 mmHg 90%
19:00 +22°C° 0.1 mm 3 mps 682 mmHg 91%
20:00 +23°C° 0.1 mm 2 mps 683 mmHg 92%
21:00 +23°C° 0.1 mm 2 mps 683 mmHg 93%
22:00 +22°C° 0 mm 1 mps 683 mmHg 93%
23:00 +22°C° 0 mm 1 mps 683 mmHg 94%

Tomorrow, 21 January, Thursday

Time Temperature Precipitation Wind Pressure Humidity
00:00 +22°C° 0 mm 1 mps 683 mmHg 95%
01:00 +22°C° 0 mm 1 mps 683 mmHg 95%
02:00 +21°C° 0 mm 1 mps 683 mmHg 96%
03:00 +21°C° 0 mm 1 mps 683 mmHg 96%
04:00 +21°C° 0 mm 1 mps 683 mmHg 96%
05:00 +19°C° 0 mm 0 mps 683 mmHg 95%
06:00 +19°C° 0 mm 0 mps 684 mmHg 95%
07:00 +21°C° 0 mm 0 mps 684 mmHg 86%
08:00 +26°C° 0 mm 1 mps 685 mmHg 77%
09:00 +28°C° 0 mm 1 mps 686 mmHg 67%
10:00 +29°C° 0.1 mm 1 mps 686 mmHg 65%
11:00 +29°C° 0.1 mm 1 mps 685 mmHg 62%
12:00 +30°C° 0.1 mm 2 mps 685 mmHg 59%
13:00 +30°C° 0.6 mm 2 mps 685 mmHg 62%
14:00 +29°C° 0.6 mm 2 mps 684 mmHg 65%
15:00 +29°C° 0.6 mm 3 mps 684 mmHg 68%
16:00 +28°C° 0.6 mm 2 mps 684 mmHg 74%
17:00 +26°C° 0.6 mm 1 mps 684 mmHg 80%
18:00 +25°C° 0.6 mm 1 mps 684 mmHg 86%
19:00 +24°C° 0 mm 1 mps 684 mmHg 88%
20:00 +24°C° 0 mm 1 mps 685 mmHg 90%
21:00 +23°C° 0 mm 1 mps 685 mmHg 92%
22:00 +23°C° 0 mm 1 mps 685 mmHg 93%
23:00 +22°C° 0 mm 1 mps 685 mmHg 93%

Day after tomorrow, 22 January, Friday

Time Temperature Precipitation Wind Pressure Humidity
00:00 +20°C° 0 mm 0 mps 685 mmHg 94%
01:00 +20°C° 0 mm 0 mps 685 mmHg 94%
02:00 +20°C° 0 mm 0 mps 684 mmHg 95%
03:00 +19°C° 0 mm 0 mps 684 mmHg 96%
04:00 +19°C° 0 mm 0 mps 684 mmHg 96%
05:00 +19°C° 0 mm 0 mps 684 mmHg 95%
06:00 +19°C° 0 mm 0 mps 685 mmHg 95%
07:00 +22°C° 0 mm 0 mps 685 mmHg 87%
08:00 +24°C° 0 mm 0 mps 686 mmHg 79%
09:00 +26°C° 0 mm 0 mps 687 mmHg 71%
10:00 +27°C° 0 mm 0 mps 686 mmHg 66%
11:00 +28°C° 0 mm 0 mps 686 mmHg 61%
12:00 +31°C° 0 mm 1 mps 686 mmHg 57%
13:00 +31°C° 0.5 mm 1 mps 686 mmHg 59%
14:00 +30°C° 0.5 mm 1 mps 685 mmHg 61%
15:00 +30°C° 0.5 mm 2 mps 685 mmHg 63%
16:00 +28°C° 1.4 mm 2 mps 685 mmHg 71%
17:00 +27°C° 1.4 mm 2 mps 684 mmHg 79%
18:00 +25°C° 1.4 mm 2 mps 684 mmHg 87%
19:00 +24°C° 1.2 mm 2 mps 685 mmHg 90%
20:00 +24°C° 1.2 mm 2 mps 685 mmHg 92%
21:00 +23°C° 1.2 mm 1 mps 685 mmHg 94%
22:00 +23°C° 0 mm 1 mps 685 mmHg 95%
23:00 +22°C° 0 mm 1 mps 685 mmHg 96%

23 January, Saturday

Time Temperature Precipitation Wind Pressure Humidity
00:00 +20°C° 0 mm 0 mps 685 mmHg 97%
01:00 +20°C° 0 mm 0 mps 684 mmHg 97%
02:00 +19°C° 0 mm 0 mps 684 mmHg 97%
03:00 +19°C° 0 mm 0 mps 684 mmHg 97%
04:00 +19°C° 0 mm 0 mps 684 mmHg 96%
05:00 +19°C° 0 mm 0 mps 684 mmHg 96%
06:00 +19°C° 0 mm 0 mps 685 mmHg 96%
07:00 +21°C° 0 mm 0 mps 685 mmHg 87%
08:00 +24°C° 0 mm 0 mps 686 mmHg 78%
09:00 +28°C° 0 mm 1 mps 687 mmHg 69%
10:00 +29°C° 0 mm 1 mps 687 mmHg 62%
11:00 +31°C° 0 mm 1 mps 686 mmHg 56%
12:00 +32°C° 0 mm 2 mps 686 mmHg 50%
13:00 +31°C° 1.5 mm 2 mps 685 mmHg 58%
14:00 +29°C° 1.5 mm 3 mps 685 mmHg 66%
15:00 +28°C° 1.5 mm 3 mps 684 mmHg 73%
16:00 +27°C° 1.3 mm 3 mps 684 mmHg 78%
17:00 +26°C° 1.3 mm 3 mps 684 mmHg 82%
18:00 +25°C° 1.3 mm 3 mps 684 mmHg 86%
19:00 +24°C° 0.1 mm 2 mps 684 mmHg 89%
20:00 +23°C° 0.1 mm 2 mps 684 mmHg 93%
21:00 +22°C° 0.1 mm 1 mps 685 mmHg 96%
22:00 +21°C° 0 mm 1 mps 685 mmHg 96%
23:00 +19°C° 0 mm 0 mps 684 mmHg 96%

24 January, Sunday

Time Temperature Precipitation Wind Pressure Humidity
00:00 +19°C° 0 mm 0 mps 684 mmHg 96%
01:00 +19°C° 0 mm 0 mps 684 mmHg 96%
02:00 +19°C° 0 mm 0 mps 684 mmHg 97%
03:00 +18°C° 0 mm 0 mps 684 mmHg 97%
04:00 +18°C° 0 mm 0 mps 684 mmHg 97%
05:00 +19°C° 0 mm 0 mps 684 mmHg 96%
06:00 +19°C° 0 mm 0 mps 684 mmHg 96%
07:00 +21°C° 0 mm 0 mps 685 mmHg 85%
08:00 +23°C° 0 mm 0 mps 686 mmHg 74%
09:00 +27°C° 0 mm 1 mps 686 mmHg 64%
10:00 +29°C° 0 mm 1 mps 686 mmHg 59%
11:00 +30°C° 0 mm 1 mps 686 mmHg 54%
12:00 +32°C° 0 mm 1 mps 685 mmHg 49%
13:00 +30°C° 1.2 mm 2 mps 685 mmHg 57%
14:00 +29°C° 1.2 mm 3 mps 684 mmHg 65%
15:00 +28°C° 1.2 mm 3 mps 683 mmHg 73%
16:00 +26°C° 2.2 mm 3 mps 683 mmHg 77%
17:00 +25°C° 2.2 mm 3 mps 683 mmHg 82%
18:00 +24°C° 2.2 mm 3 mps 683 mmHg 87%
19:00 +23°C° 0.4 mm 2 mps 684 mmHg 90%
20:00 +23°C° 0.4 mm 2 mps 684 mmHg 93%
21:00 +22°C° 0.4 mm 1 mps 684 mmHg 95%
22:00 +21°C° 0.2 mm 1 mps 684 mmHg 96%
23:00 +21°C° 0.2 mm 1 mps 684 mmHg 97%

25 January, Monday

Time Temperature Precipitation Wind Pressure Humidity
00:00 +21°C° 0.2 mm 1 mps 684 mmHg 97%
01:00 +19°C° 0 mm 0 mps 684 mmHg 97%
02:00 +19°C° 0 mm 0 mps 684 mmHg 97%
03:00 +19°C° 0 mm 0 mps 683 mmHg 97%
04:00 +19°C° 0 mm 0 mps 684 mmHg 96%
05:00 +19°C° 0 mm 0 mps 684 mmHg 96%
06:00 +19°C° 0 mm 0 mps 685 mmHg 95%
07:00 +21°C° 0 mm 0 mps 685 mmHg 87%
08:00 +23°C° 0 mm 0 mps 686 mmHg 80%
09:00 +25°C° 0 mm 0 mps 686 mmHg 72%
10:00 +27°C° 0.1 mm 0 mps 686 mmHg 65%
11:00 +28°C° 0.1 mm 0 mps 686 mmHg 59%
12:00 +30°C° 0.1 mm 0 mps 686 mmHg 53%
13:00 +31°C° 0.7 mm 1 mps 685 mmHg 57%
14:00 +30°C° 0.7 mm 2 mps 685 mmHg 61%
15:00 +29°C° 0.7 mm 2 mps 684 mmHg 65%
16:00 +27°C° 1.2 mm 2 mps 684 mmHg 72%
17:00 +26°C° 1.2 mm 2 mps 684 mmHg 79%
18:00 +24°C° 1.2 mm 2 mps 684 mmHg 86%
19:00 +24°C° 0.4 mm 1 mps 684 mmHg 88%
20:00 +23°C° 0.4 mm 1 mps 685 mmHg 90%
21:00 +20°C° 0.4 mm 0 mps 685 mmHg 92%
22:00 +20°C° 0.1 mm 0 mps 685 mmHg 93%
23:00 +22°C° 0.1 mm 1 mps 685 mmHg 94%
Show more